Meteo Giornale » Osservazioni meteo Norvegia » Hasvik
ore: 21:20 - Osservazioni Meteo Hasvik
Lat. 70° 29' N Lon. 22° 9' E Alt. 10 metri s.l.m.
11 °C
Pioggia nelle vicinanze
Temp. 24 Ore
11 °C
15 °C
Ovest/Nord-Ovest
13 Km/h
Dew point 10 °C
Umidità 93 %
Visibilità 10 Km
Il sole sorge alle ore 04:39
Il sole tramonta alle ore 20:23
| Data e Ora | Cielo e Fenomeni | T °C | DP °C | Um. % | Pres. hPa | Vis. km | Vento km/h | |
|---|---|---|---|---|---|---|---|---|
| Oggi h: 21:20 | Pioggia nelle vicinanze | 11 | 10 | 93 | 1007 | 10 | O/NO 13 | |
| Oggi h: 20:50 | Pioggia nelle vicinanze | 11 | 10 | 93 | 1007 | 10 | O/NO 13 | |
| Oggi h: 20:20 | Pioviggine | 11 | 11 | 100 | 1007 | 10 | O 18.5 | |
| Oggi h: 19:50 | Pioviggine | 11 | 11 | 100 | 1007 | 10 | O 20.3 | |
| Oggi h: 19:20 | Foschia | 11 | 11 | 100 | 1006 | 5 | O/NO 18.5 | |
| Oggi h: 18:50 | Foschia | 11 | 11 | 100 | 1006 | 4 | O 18.5 | |
| Oggi h: 18:20 | Pioviggine | 11 | 11 | 100 | 1006 | 10 | O 20.3 | |
| Oggi h: 17:50 | Pioviggine | 11 | 11 | 100 | 1006 | 10 | O 20.3 | |
| Oggi h: 17:20 | Pioviggine | 11 | 11 | 100 | 1006 | 10 | O 18.5 | |
| Oggi h: 16:50 | Foschia | 11 | 11 | 100 | 1006 | 5 | O 20.3 | |
| Oggi h: 16:20 | Nebbia | 11 | 11 | 100 | 1005 | 0.9 | O 22.2 | |
| Oggi h: 15:50 | Foschia | 12 | 11 | 93 | 1005 | 2 | O 16.7 | |
| Oggi h: 15:20 | Molto Nuvoloso | 12 | 11 | 93 | 1005 | 10 | NO 7.4 | |
| Oggi h: 14:20 | Pioviggine | 13 | 11 | 87 | 1004 | 10 | NO 11.1 | |
| Oggi h: 13:50 | Coperto | 14 | 12 | 87 | 1004 | 10 | N 5.5 | |
| Oggi h: 13:20 | Coperto | 13 | 11 | 87 | 1004 | 10 | N 3.7 | |
| Oggi h: 12:50 | Pioggia | 13 | 12 | 93 | 1004 | 10 | N 1.8 | |
| Oggi h: 12:20 | Nuvoloso | 13 | 12 | 93 | 1003 | 10 | N 3.7 | |
| Oggi h: 11:20 | Pioggia | 12 | 12 | 100 | 1003 | 10 | N 5.5 | |
| Oggi h: 10:50 | Molto Nuvoloso | 12 | 11 | 93 | 1003 | 10 | NO 7.4 | |
| Oggi h: 09:20 | Pioviggine | 12 | 11 | 93 | 1003 | 5 | O/NO 11.1 | |
| Oggi h: 08:50 | Pioviggine | 11 | 11 | 100 | 1002 | 10 | O/NO 13 | |
| Oggi h: 08:20 | Pioggia Foschia | 12 | 11 | 93 | 1002 | 3 | O 13 | |
| Oggi h: 07:50 | Cielo Invisibile | 12 | 11 | 93 | 1002 | 10 | O 7.4 | |
| Oggi h: 07:20 | Pioggia | 12 | 11 | 93 | 1002 | 5 | NO 11.1 | |
| Oggi h: 06:50 | Pioviggine | 12 | 11 | 93 | 1002 | 4 | NO 11.1 | |
| Oggi h: 06:20 | Cielo Invisibile | 12 | 11 | 93 | 1001 | 1 | O 13 | |
| Oggi h: 05:50 | Pioviggine | 12 | 11 | 93 | 1001 | 9 | O 14.8 | |
| Oggi h: 05:20 | Cielo Invisibile | 12 | 12 | 100 | 1001 | 4 | NO 9.3 | |
| Oggi h: 04:50 | Pioviggine | 12 | 12 | 100 | 1001 | 5 | O/NO 7.4 | |
| Oggi h: 04:20 | Coperto | 12 | 12 | 100 | 1001 | 10 | O/NO 7.4 | |
| Oggi h: 03:50 | Coperto | 13 | 12 | 93 | 1000 | 10 | N 5.5 | |
| Oggi h: 03:20 | Coperto | 13 | 12 | 93 | 1000 | 10 | SO 7.4 | |
| Oggi h: 02:50 | Coperto | 13 | 12 | 93 | 1000 | 10 | N 3.7 | |
| Oggi h: 02:20 | Pioggia | 13 | 12 | 93 | 1000 | 10 | N 0 | |
| Oggi h: 01:50 | Pioggia | 13 | 12 | 93 | 1000 | 10 | N 0 | |
| Oggi h: 01:20 | Pioggia | 13 | 12 | 93 | 1000 | 9 | N 5.5 | |
| Oggi h: 00:50 | Pioggia | 14 | 12 | 87 | 1000 | 10 | SE 7.4 | |
| Oggi h: 00:20 | Pioggia | 14 | 12 | 87 | 1000 | 10 | E/SE 9.3 | |
| Ieri h: 23:50 | Pioggia | 14 | 12 | 87 | 1000 | 10 | E/SE 9.3 | |
| Ieri h: 23:20 | Pioggia | 14 | 12 | 87 | 1000 | 10 | E/SE 7.4 | |
| Ieri h: 22:50 | Pioggia | 14 | 12 | 87 | 1000 | 10 | E 13 | |
| Ieri h: 22:20 | Coperto | 14 | 11 | 82 | 1000 | 10 | E 11.1 | |
| Ieri h: 21:50 | Pioggia | 15 | 11 | 76 | 1000 | 10 | E/SE 13 | |



